Orbital Elements at Epoch 2459000.5 (2020-May-31.0) TDB
Reference: JPL 19 (heliocentric ecliptic J2000)
Element | Value | Uncertainty (1-sigma) | Units |
e | .0602740328275268 | 5.7089e-08 | |
a | 2.695487615090838 | 1.9841e-08 | au |
q | 2.533019706092661 | 1.5744e-07 | au |
i | .6904056185940691 | 4.7747e-06 | deg |
node | 274.9200912585172 | 0.00050748 | deg |
peri | 116.0470526848186 | 0.00050914 | deg |
M | 202.4744316761122 | 4.3474e-05 | deg |
tp | 2459707.798915752303 (2022-May-08.29891575) | 0.00019913 | TDB |
period | 1616.420828568541 4.43 | 1.7847e-05 4.886e-08 | d yr |
n | .2227142793741444 | 2.4591e-09 | deg/d |
Q | 2.857955524089015 | 2.1037e-08 | au |
|
| | Orbit Determination Parameters
Additional Information
|